Regional Weather Roundup
Issued by NWS Grand Forks, ND

Home | Current Version | Previous Version | Text Only | Print | Product List | Glossary Off
Versions: 1 2 3 4 5 6 7 8 9 10 11 12 13 14 15 16 17 18 19 20 21 22 23 24 25 26 27 28 29 30 31 32 33 34 35 36 37 38 39 40 41 42 43 44 45 46 47 48 49 50

000
ASUS43 KFGF 282231
RWRFGF
PRAIRIE TO PINES  WEATHER ROUNDUP
NATIONAL WEATHER SERVICE EASTERN NORTH DAKOTA/GRAND FORKS ND
500 PM CDT THU MAY 28 2015

 **SATELLITE DATA USED TO AUGMENT SKY COVER AT AUTOMATED STATIONS**
 *****  WEATHER ACROSS EASTERN NORTH DAKOTA  *****

CITY           SKY/WX    TMP DP  RH WIND       PRES   REMARKS
GRAND FORKS    LGT RAIN  64  61  88 W13       29.75F
GRAND FRKS AFB LGT RAIN  66  59  77 W15       29.76F
GRAND FRKS NWS   N/A     64 N/A N/A W13         N/A
DEVILS LAKE    PTSUNNY   75  57  53 W12G22    29.79F
FARGO          RAIN      67  58  72 S23G30    29.82R
WAHPETON ARPT  PTCLDY    81  54  39 S25G31    29.78F
$$

 ***** WEATHER ACROSS CENTRAL AND WESTERN NORTH DAKOTA  *****

CITY           SKY/WX    TMP DP  RH WIND       PRES   REMARKS
BISMARCK       PTSUNNY   78  55  44 W7        29.83F
MINOT          PTSUNNY   68  56  65 NW13      29.86R
JAMESTOWN      PTSUNNY   75  62  64 W13       29.79F
MINOT AFB      PTSUNNY   70  67  90 N7        29.85S
GARRISON         N/A     72  56  57 N6        29.85S
WILLISTON      PTSUNNY   73  53  49 N18       29.89R
DICKINSON      MOSUNNY   73  56  54 N20       29.86S
HETTINGER      TSTM      65  56  72 MISG      29.89S
$$

 *****  OTHER AIRPORT OBSERVATIONS IN OUR AREA  *****

CITY           SKY/WX    TMP DP  RH WIND       PRES   REMARKS
WALHALLA         N/A     68  68 100 MISG      29.79S
GRAFTON AIRPOR MOCLDY    68  57  68 VRB5G12   29.77F THUNDER
VALLEY CITY AR FAIR      72  66  83 W10       29.79F
CANDO          FAIR      75  59  57 W9        29.82S
CAVALIER APRT  NOT AVBL
GWINNER        NOT AVBL
ROLLA          CLOUDY    66  61  82 N15       29.86S
 ***** THE ABOVE OBSERVATIONS ARE NON NWS ARE NOT QUALITY
       CONTROLLED AND MAY MIS-REPORT RAIN FOR SNOW...
$$

  *****  WEATHER ACROSS NORTHERN MINNESOTA  *****

CITY           SKY/WX    TMP DP  RH WIND       PRES   REMARKS
FLAG ISLAND    PTSUNNY   59  55  88 S6        29.83F
WARROAD        PTSUNNY   64  61  88 NE9       29.83F
ROSEAU         PTSUNNY   72  63  73 E3        29.80F
HALLOCK        PTSUNNY   70  64  83 N7        29.78S
THF RVR FALLS  PTSUNNY   64  57  77 SE20G26   29.76F THUNDER
BAUDETTE       PTSUNNY   66  60  81 SE8       29.84F
WASKISH        MOSUNNY   64  63  94 CALM      29.82F
CROOKSTON      PTSUNNY   70  66  88 W9        29.77R
STEPHEN NDAWN    N/A     73  63  68 SE6         N/A
GREENBUSH NDAW   N/A     72  63  73 N7          N/A
$$
  *****  WEATHER ACROSS CENTRAL AND WEST MINNESOTA  *****

CITY           SKY/WX    TMP DP  RH WIND       PRES   REMARKS
FOSSTON        MOSUNNY   75  57  53 S23G33    29.79S
BEMIDJI        MOSUNNY   78  55  45 S14G23    29.82F
PARK RAPIDS    MOSUNNY   84  45  25 S26G35    29.85F
ELBOW LAKE     FAIR      83  55  37 S26       29.82F
WADENA         MOSUNNY   81  54  39 S18       29.85F
DETROIT LAKES  MOSUNNY   77  55  47 S14G21    29.83F
MOORHEAD       TSTM      75  63  64 W26       29.81R
FERGUS FALLS   MOSUNNY   82  57  42 S25       29.80F
MORRIS MN      MOSUNNY   86  52  30 S23G29    29.82F
STAPLES        PTSUNNY   81  46  30 S18G26    29.87F
$$
  *****  WEATHER ELSEWHERE ACROSS MINNESOTA  *****

CITY           SKY/WX    TMP DP  RH WIND       PRES   REMARKS
DULUTH         MOSUNNY   49  44  83 E14       29.99F
INTRNTL FALLS  PTSUNNY   63  55  75 N8        29.87F
ELY            NOT AVBL
CLOQUET        MOSUNNY   55  45  67 E9        29.97F
WHEATON        MOSUNNY   82  55  39 S25G36    29.80F
BRAINERD       CLOUDY    78  52  40 S15       29.91F
HIBBING        MOSUNNY   78  53  41 S10G18    29.90F
ALEXANDRIA     PTSUNNY   81  51  35 S18G24    29.90F
SAINT CLOUD    CLOUDY    80  53  39 S16G28    29.92F
MINNEAPOLIS    PTSUNNY   83  48  29 S23       29.97F
$$

  *****  WEATHER ACROSS SOUTH DAKOTA  *****

CITY           SKY/WX    TMP DP  RH WIND       PRES   REMARKS
SIOUX FALLS    PTSUNNY   79  58  48 S25G33    29.89F
BROOKINGS      PTSUNNY   81  57  44 S16       29.87F
WATERTOWN      MOSUNNY   81  59  47 S21G30    29.85F
HURON            N/A    N/A N/A N/A MISG      29.81F
SISSETON         N/A     84  58  40 S30G37    29.79F
ABERDEEN       PTSUNNY   86  58  38 SW20G29   29.77F
MITCHELL       PTSUNNY   85  56  37 S23G29    29.83F
PIERRE         RAIN      67  56  67 SW5       29.81S
MOBRIDGE       MOSUNNY   81  57  43 N7        29.78F
RAPID CITY     PTSUNNY   68  54  60 N13       29.91S
$$

  *****  SOME WEATHER IN NEARBY STATES *****

CITY           SKY/WX    TMP DP  RH WIND       PRES   REMARKS
GLASGOW MT     TSTM      58  53  84 NE6       30.01R
GREAT FALLS MT CLOUDY    52  50  93 N23       30.19R FOG
CHEYENNE WY    PTSUNNY   67  36  31 NW14G24   30.02F
SCOTTSBLUFF NE CLOUDY    73  48  41 W6        29.92F
OMAHA NE       CLOUDY    71  65  81 S13       29.96F
DES MOINES IA  CLOUDY    74  63  68 S14       30.03F
DAVENPORT IA   MOSUNNY   83  51  33 S13       30.07F
CHICAGO IL     PTSUNNY   81  54  39 SE10      30.12F
EAU CLAIRE WI  MOSUNNY   82  55  39 S15G22    30.02F
LA CROSSE WI   MOSUNNY   83  53  35 S13G23    30.04F
$$

  *****  SOME NATIONAL WEATHER *****

CITY           SKY/WX    TMP DP  RH WIND       PRES   REMARKS
LA GUARDIA NY  CLOUDY    81  64  56 S8        30.11R
RALEIGH NC     MOSUNNY   85  66  53 CALM      30.15F
ATLANTA GA     LGT RAIN  72  66  83 E12       30.19R
NEW ORLEANS LA MOSUNNY   88  68  51 VRB5      30.04F HX  91
OKLAHOMA CITY  CLOUDY    76  70  82 S25G32    29.97R
ALBUQUERQUE NM MOSUNNY   82  25  12 S13       30.01F
SALT LAKE CITY PTSUNNY   69  45  41 N14       30.09R
LOS ANGELES CA MOSUNNY   65  56  72 W12       29.97F
BOISE ID       SUNNY     78  42  27 W7        30.05F
SEATTLE WA     MOSUNNY   79  54  41 NW8       30.03F
$$

*** WEATHER ACROSS MANITOBA...SASKATCHEWAN AND ONTARIO ***
                ***ONTARIO***

CITY           SKY/WX    TMP DP  RH WIND       PRES   REMARKS
GERALDTON      LGT RAIN  59  45  58 VRB2      30.11R
THUNDER BAY    CLOUDY    50  45  81 E12       30.08F
SIOUX LOOKOUT  LGT RAIN  54  54 100 S9        29.90F FOG
TORONTO        MOSUNNY   75  54  46 SE10      30.22F
BIG TROUT LK   CLOUDY    54  30  40 E10G22    30.06S
PICKLE LAKE    LGT RAIN  46  43  87 SE9       29.98F FOG
DRYDEN         CLOUDY    57  54  88 S8        29.89F
KENORA         CLOUDY    61  59  94 S5        29.86F
$$
                *** MANITOBA***

CITY           SKY/WX    TMP DP  RH WIND       PRES   REMARKS
BRANDON        CLOUDY    68  54  60 N8        29.85S
DAUPHIN        LGT RAIN  52  48  87 N28G36    29.92R FOG
ISLAND LAKE    LGT RAIN  57  43  58 E7        29.87F
PILOT MOUND      N/A     66  59  77 NW13        N/A
THE PAS        DRIZZLE   43  41  93 N20G26    30.08R
THOMPSON       LGT SNOW  36  34  93 NE15      30.14S
WINNIPEG       CLOUDY    63  59  88 N14       29.82F
LYNN LAKE      MIX PCPN  36  32  87 N14G25    30.27R
CHURCHILL      CLOUDY    30  27  86 NE14      30.38S WCI  20
GILLAM         LGT SNOW  30  28  93 NE14G23   30.21R VSB 3/4 WCI  20
$$
                ***SASKATCHEWAN***

CITY           SKY/WX    TMP DP  RH WIND       PRES   REMARKS
ESTEVAN        CLOUDY    70  54  56 N7        29.91S
KINDERSLEY     MOSUNNY   55  32  41 N16G29    30.22R
LLOYDMINSTER   MOSUNNY   52  28  40 NE16G28   30.28S
PRINCE ALBERT  MOSUNNY   52  30  43 N25G33    30.20
REGINA         CLOUDY    54  43  66 N28G37    30.06R
YORKTON        CLOUDY    48  43  81 N24G35    30.01R
N. BATTLEFORD  MOSUNNY   55  30  38 N16G29    30.24R
LA RONGE       PTSUNNY   45  28  53 N14G23    30.29R
SASKATOON      MOSUNNY   57  28  33 N23G29    30.17S
SWIFT CURRENT  CLOUDY    48  43  81 N21G26    30.15R
$$
NOTE: THESE ARE AUTOMATED STATIONS WITH LIMITED QUALITY CONTROL
      "FAIR" INDICATES FEW OR NO CLOUDS BELOW 12,000 FEET WITH NO
      SIGNIFICANT WEATHER AND/OR OBSTRUCTIONS TO VISIBILITY.
      SKY/WX - SKY CONDITION AND SIGNIFICANT WEATHER.
      TMP - AIR TEMPERATURE.    DP   - DEWPOINT TEMPERATURE.
      RH  - RELATIVE HUMIDITY.  PRES - PRESSURE.
      HX  - HEAT INDEX.         WCI  - WIND CHILL INDEX.
$


USA.gov is the U.S. government's official web portal to all federal, state and local government web resources and services.